Location: Six Mile Lake
(44.9000°N, 79.7170°W)
Time: 13:35:32
(UTC-04:00)

O/OREOS (USA 219) - Pass Details

Date: 06 July 2022
Orbit: 621 x 646 km, 72.0° (Epoch: 22 May)

Event Time Altitude Azimuth Distance (km) Brightness Sun altitude
Rises 00:07:47 0° 341° (NNW) 2,966 ? -20.2°
Reaches altitude 10° 00:10:10 10° 348° (NNW) 2,053 ? -20.4°
Maximum altitude 00:14:35 43° 60° (ENE) 907 ? -20.6°
Enters shadow 00:16:04 33° 105° (ESE) 1,098 ? -20.7°
